SCOUT A R/B, 2413

Orbit data source: Space-Track

SCOUT A R/B, 2413 is space debris in LEO originally from a launch on Thu, 18 Aug 1966 UTC launched from the Air Force Western Test Range (AFWTR). Debris objects in space refer to the collection of defunct objects orbiting the Earth. Examples of debris include non-operational satellites, rocket bodies, and fragments generated from explosions, collisions, or faulty payload assembly.

Loading next visibility...
Identifier
2413, 1966-076B
Orbit
LEO
Last TLE update
8 hours ago
Origin
Manufacturer
ABL
Mission
Spacecraft
Bus & Motor
ALTAIR, Unknown motor
Mass
33 kg wet, 33 kg dry
Launch date (UTC)
1966-08-18 (59 years ago)
Launch vehicle
Unknown
Launch site
Air Force Western Test Range (AFWTR)
Object type
Payload
Rocket body
Debris
Shape & HBR
Cyl, 1.5 m
Radar Cross Section
0.687 m², Medium (>0.1 m² and < 1m²)

Expand to show TLE details & history

TLE from 8 hours ago
0 SCOUT A R/B
1 02413U 66076B   25128.89216903  .00000111  00000-0  15061-3 0  9990
2 02413  88.8513 118.8772 0033123 152.4686 207.8229 13.51807020894034
Epoch: 2025-05-08T21:24Z
Definitive object data (Epoch: 2025-05-08T21:24:43.404Z)
Latitude
-0.00001°
Longitude
-69.2598°
Altitude
1,090.399 km
Speed
7.296 km/s
True Right ascension
07h 55m 30s
True Declination
0° 00' 00"
Sunlit
Object was in daylight at TLE epoch
Visualization TLE readout
Latitude
27.43981°
Longitude
110.10872°
Altitude
1,044.376 km
Speed
7.344 km/s
Apparent Right ascension
22h 09m 12s
Apparent Declination
-4° 24' 01"
Sunlit
Object is in daylight
Visualization observer readout
Local Sidereal Time
13:24:48
Azimuth
64.291° ENE
Elevation
-33.501°
Doppler factor
1
Orbital elements
Apogee altitude
1,087.314 km
Perigee altitude
1,038.022 km
Semi-major axis
7,440.805 km
Eccentricity
0.0033123
Inclination
88.8513°
RAAN
118.8772°
Arg. of periapsis
152.4686°
True anomaly
207.64639°
Mean anomaly
207.8229°
Eccentric anomaly
207.73458°
Mean motion
3.38153 °/min
BSTAR
0.00015061
Orbital period
106.46 mins
Loading maneuver chart data...
Loading SW <> Apogee altitude chart data...
Loading historical data...
Loading historical data...
Loading historical data...
Loading historical data...
Loading historical data...
Loading historical data...
Loading historical data...

SCOUT A R/B Visibility forecast

Observer location: undefined°, undefined°

Span
Click to sort rows by Start time (UTC) header in descending order
Start Az.
Max El. time (UTC)
Max El. Az.
Max El.
End time (UTC)
End Az.
10 mins2025-05-09 10:27:09.812Z27.961° NE2025-05-09 10:32:09.812Z83.223° E23.844°2025-05-09 10:37:09.812Z134.967° SE
10 mins2025-05-09 12:14:09.812Z342.645° N2025-05-09 12:18:09.812Z291.021° WNW35.784°2025-05-09 12:24:09.812Z208.452° SW
8 mins2025-05-09 22:26:09.812Z112.312° ESE2025-05-09 22:29:09.812Z78.797° E21.517°2025-05-09 22:34:09.812Z27.796° NE
11 mins2025-05-10 00:10:09.812Z198.692° SSW2025-05-10 00:15:09.812Z264.731° W39.535°2025-05-10 00:21:09.812Z348.788° N
|